﻿<?xml version="1.0" encoding="UTF-8" standalone="no"?>
<gpx xmlns="http://www.topografix.com/GPX/1/1" xmlns:gpxtpx="http://www.garmin.com/xmlschemas/TrackPointExtension/v1" xmlns:xsi="http://www.w3.org/2001/XMLSchema-instance" creator="Hribi.net" version="1.1" xsi:schemaLocation="http://www.topografix.com/GPX/1/1 http://www.topografix.com/GPX/1/1/gpx.xsd http://www.garmin.com/xmlschemas/TrackPointExtension/v1 http://www.garmin.com/xmlschemas/TrackPointExtensionv1.xsd">
  <metadata>
    <name>GPS sled</name>
    <desc>www.hribi.net</desc>
    <author>
      <name>hribi.net</name>
    </author>
    <link href="http://www.hribi.net">
      <text>Hribi.net</text>
    </link>
  </metadata>
  <trk>
    <trkseg>
      <trkpt lat="45.530662" lon="13.951972">
        <ele>521.5128</ele>
        <time>1970-01-01T00:00:00Z</time>
      </trkpt>
      <trkpt lat="45.530738" lon="13.952012">
        <ele>523.6464</ele>
        <time>1970-01-01T00:00:00Z</time>
      </trkpt>
      <trkpt lat="45.530863" lon="13.952097">
        <ele>526.0848</ele>
        <time>1970-01-01T00:00:00Z</time>
      </trkpt>
      <trkpt lat="45.531047" lon="13.952171">
        <ele>528.5232</ele>
        <time>1970-01-01T00:00:00Z</time>
      </trkpt>
      <trkpt lat="45.531212" lon="13.952219">
        <ele>529.7424</ele>
        <time>1970-01-01T00:00:00Z</time>
      </trkpt>
      <trkpt lat="45.531378" lon="13.952282">
        <ele>529.7424</ele>
        <time>1970-01-01T00:00:00Z</time>
      </trkpt>
      <trkpt lat="45.531564" lon="13.952364">
        <ele>532.1808</ele>
        <time>1970-01-01T00:00:00Z</time>
      </trkpt>
      <trkpt lat="45.531743" lon="13.952460">
        <ele>534.6192</ele>
        <time>1970-01-01T00:00:00Z</time>
      </trkpt>
      <trkpt lat="45.531933" lon="13.952584">
        <ele>537.3624</ele>
        <time>1970-01-01T00:00:00Z</time>
      </trkpt>
      <trkpt lat="45.532108" lon="13.952684">
        <ele>539.8008</ele>
        <time>1970-01-01T00:00:00Z</time>
      </trkpt>
      <trkpt lat="45.532127" lon="13.952684">
        <ele>540.4104</ele>
        <time>1970-01-01T00:00:00Z</time>
      </trkpt>
      <trkpt lat="45.532248" lon="13.952785">
        <ele>541.9344</ele>
        <time>1970-01-01T00:00:00Z</time>
      </trkpt>
      <trkpt lat="45.532230" lon="13.952911">
        <ele>544.3728</ele>
        <time>1970-01-01T00:00:00Z</time>
      </trkpt>
      <trkpt lat="45.532202" lon="13.953038">
        <ele>546.2016</ele>
        <time>1970-01-01T00:00:00Z</time>
      </trkpt>
      <trkpt lat="45.532220" lon="13.953185">
        <ele>548.64</ele>
        <time>1970-01-01T00:00:00Z</time>
      </trkpt>
      <trkpt lat="45.532223" lon="13.953303">
        <ele>549.5544</ele>
        <time>1970-01-01T00:00:00Z</time>
      </trkpt>
      <trkpt lat="45.532252" lon="13.953394">
        <ele>549.8592</ele>
        <time>1970-01-01T00:00:00Z</time>
      </trkpt>
      <trkpt lat="45.532232" lon="13.953518">
        <ele>553.8216</ele>
        <time>1970-01-01T00:00:00Z</time>
      </trkpt>
      <trkpt lat="45.532237" lon="13.953632">
        <ele>556.26</ele>
        <time>1970-01-01T00:00:00Z</time>
      </trkpt>
      <trkpt lat="45.532209" lon="13.953655">
        <ele>555.3456</ele>
        <time>1970-01-01T00:00:00Z</time>
      </trkpt>
      <trkpt lat="45.532189" lon="13.953877">
        <ele>557.1744</ele>
        <time>1970-01-01T00:00:00Z</time>
      </trkpt>
      <trkpt lat="45.532164" lon="13.953989">
        <ele>559.0032</ele>
        <time>1970-01-01T00:00:00Z</time>
      </trkpt>
      <trkpt lat="45.532116" lon="13.954254">
        <ele>562.0512</ele>
        <time>1970-01-01T00:00:00Z</time>
      </trkpt>
      <trkpt lat="45.532096" lon="13.954381">
        <ele>564.4896</ele>
        <time>1970-01-01T00:00:00Z</time>
      </trkpt>
      <trkpt lat="45.532063" lon="13.954485">
        <ele>566.928</ele>
        <time>1970-01-01T00:00:00Z</time>
      </trkpt>
      <trkpt lat="45.532050" lon="13.954629">
        <ele>569.3664</ele>
        <time>1970-01-01T00:00:00Z</time>
      </trkpt>
      <trkpt lat="45.532024" lon="13.954752">
        <ele>571.1952</ele>
        <time>1970-01-01T00:00:00Z</time>
      </trkpt>
      <trkpt lat="45.532010" lon="13.954853">
        <ele>574.548</ele>
        <time>1970-01-01T00:00:00Z</time>
      </trkpt>
      <trkpt lat="45.532036" lon="13.954934">
        <ele>577.2912</ele>
        <time>1970-01-01T00:00:00Z</time>
      </trkpt>
      <trkpt lat="45.532001" lon="13.955031">
        <ele>580.644</ele>
        <time>1970-01-01T00:00:00Z</time>
      </trkpt>
      <trkpt lat="45.531978" lon="13.955185">
        <ele>584.6064</ele>
        <time>1970-01-01T00:00:00Z</time>
      </trkpt>
      <trkpt lat="45.531936" lon="13.955465">
        <ele>593.1408</ele>
        <time>1970-01-01T00:00:00Z</time>
      </trkpt>
      <trkpt lat="45.531924" lon="13.955570">
        <ele>594.6648</ele>
        <time>1970-01-01T00:00:00Z</time>
      </trkpt>
      <trkpt lat="45.531898" lon="13.955663">
        <ele>595.5792</ele>
        <time>1970-01-01T00:00:00Z</time>
      </trkpt>
      <trkpt lat="45.531885" lon="13.955735">
        <ele>596.4936</ele>
        <time>1970-01-01T00:00:00Z</time>
      </trkpt>
      <trkpt lat="45.531868" lon="13.955814">
        <ele>598.932</ele>
        <time>1970-01-01T00:00:00Z</time>
      </trkpt>
      <trkpt lat="45.531840" lon="13.955910">
        <ele>602.8944</ele>
        <time>1970-01-01T00:00:00Z</time>
      </trkpt>
      <trkpt lat="45.531813" lon="13.955996">
        <ele>604.7232</ele>
        <time>1970-01-01T00:00:00Z</time>
      </trkpt>
      <trkpt lat="45.531808" lon="13.956100">
        <ele>607.1616</ele>
        <time>1970-01-01T00:00:00Z</time>
      </trkpt>
      <trkpt lat="45.531797" lon="13.956175">
        <ele>608.6856</ele>
        <time>1970-01-01T00:00:00Z</time>
      </trkpt>
      <trkpt lat="45.531795" lon="13.956349">
        <ele>611.124</ele>
        <time>1970-01-01T00:00:00Z</time>
      </trkpt>
      <trkpt lat="45.531787" lon="13.956545">
        <ele>616.0008</ele>
        <time>1970-01-01T00:00:00Z</time>
      </trkpt>
      <trkpt lat="45.531787" lon="13.956628">
        <ele>614.7816</ele>
        <time>1970-01-01T00:00:00Z</time>
      </trkpt>
      <trkpt lat="45.531785" lon="13.956764">
        <ele>623.6208</ele>
        <time>1970-01-01T00:00:00Z</time>
      </trkpt>
      <trkpt lat="45.531774" lon="13.956846">
        <ele>625.4496</ele>
        <time>1970-01-01T00:00:00Z</time>
      </trkpt>
      <trkpt lat="45.531752" lon="13.956977">
        <ele>626.9736</ele>
        <time>1970-01-01T00:00:00Z</time>
      </trkpt>
      <trkpt lat="45.531738" lon="13.957033">
        <ele>630.6312</ele>
        <time>1970-01-01T00:00:00Z</time>
      </trkpt>
      <trkpt lat="45.531724" lon="13.957192">
        <ele>635.508</ele>
        <time>1970-01-01T00:00:00Z</time>
      </trkpt>
      <trkpt lat="45.531710" lon="13.957261">
        <ele>636.4224</ele>
        <time>1970-01-01T00:00:00Z</time>
      </trkpt>
      <trkpt lat="45.531704" lon="13.957375">
        <ele>636.1176</ele>
        <time>1970-01-01T00:00:00Z</time>
      </trkpt>
      <trkpt lat="45.531706" lon="13.957491">
        <ele>639.7752</ele>
        <time>1970-01-01T00:00:00Z</time>
      </trkpt>
      <trkpt lat="45.531696" lon="13.957532">
        <ele>642.2136</ele>
        <time>1970-01-01T00:00:00Z</time>
      </trkpt>
      <trkpt lat="45.531618" lon="13.957566">
        <ele>643.128</ele>
        <time>1970-01-01T00:00:00Z</time>
      </trkpt>
      <trkpt lat="45.531509" lon="13.957591">
        <ele>654.7104</ele>
        <time>1970-01-01T00:00:00Z</time>
      </trkpt>
      <trkpt lat="45.531267" lon="13.958717">
        <ele>664.464</ele>
        <time>1970-01-01T00:00:00Z</time>
      </trkpt>
      <trkpt lat="45.531206" lon="13.958838">
        <ele>671.1696</ele>
        <time>1970-01-01T00:00:00Z</time>
      </trkpt>
      <trkpt lat="45.531166" lon="13.959050">
        <ele>675.132</ele>
        <time>1970-01-01T00:00:00Z</time>
      </trkpt>
      <trkpt lat="45.531195" lon="13.959165">
        <ele>676.3512</ele>
        <time>1970-01-01T00:00:00Z</time>
      </trkpt>
      <trkpt lat="45.531228" lon="13.959365">
        <ele>677.2656</ele>
        <time>1970-01-01T00:00:00Z</time>
      </trkpt>
      <trkpt lat="45.531396" lon="13.959537">
        <ele>684.5808</ele>
        <time>1970-01-01T00:00:00Z</time>
      </trkpt>
      <trkpt lat="45.531542" lon="13.959622">
        <ele>685.1904</ele>
        <time>1970-01-01T00:00:00Z</time>
      </trkpt>
      <trkpt lat="45.531614" lon="13.959778">
        <ele>683.9712</ele>
        <time>1970-01-01T00:00:00Z</time>
      </trkpt>
      <trkpt lat="45.531684" lon="13.959798">
        <ele>690.9816</ele>
        <time>1970-01-01T00:00:00Z</time>
      </trkpt>
      <trkpt lat="45.531708" lon="13.960062">
        <ele>691.896</ele>
        <time>1970-01-01T00:00:00Z</time>
      </trkpt>
      <trkpt lat="45.531673" lon="13.960188">
        <ele>697.992</ele>
        <time>1970-01-01T00:00:00Z</time>
      </trkpt>
      <trkpt lat="45.531660" lon="13.960237">
        <ele>708.0504</ele>
        <time>1970-01-01T00:00:00Z</time>
      </trkpt>
      <trkpt lat="45.531618" lon="13.960320">
        <ele>717.804</ele>
        <time>1970-01-01T00:00:00Z</time>
      </trkpt>
      <trkpt lat="45.531600" lon="13.960491">
        <ele>718.1088</ele>
        <time>1970-01-01T00:00:00Z</time>
      </trkpt>
      <trkpt lat="45.531560" lon="13.960636">
        <ele>716.8896</ele>
        <time>1970-01-01T00:00:00Z</time>
      </trkpt>
      <trkpt lat="45.531466" lon="13.960944">
        <ele>718.1088</ele>
        <time>1970-01-01T00:00:00Z</time>
      </trkpt>
      <trkpt lat="45.531431" lon="13.961046">
        <ele>724.5096</ele>
        <time>1970-01-01T00:00:00Z</time>
      </trkpt>
      <trkpt lat="45.531404" lon="13.961250">
        <ele>738.8352</ele>
        <time>1970-01-01T00:00:00Z</time>
      </trkpt>
      <trkpt lat="45.531319" lon="13.961461">
        <ele>747.6744</ele>
        <time>1970-01-01T00:00:00Z</time>
      </trkpt>
      <trkpt lat="45.531127" lon="13.961643">
        <ele>752.2464</ele>
        <time>1970-01-01T00:00:00Z</time>
      </trkpt>
      <trkpt lat="45.531123" lon="13.961916">
        <ele>750.4176</ele>
        <time>1970-01-01T00:00:00Z</time>
      </trkpt>
      <trkpt lat="45.531157" lon="13.962058">
        <ele>751.332</ele>
        <time>1970-01-01T00:00:00Z</time>
      </trkpt>
      <trkpt lat="45.531171" lon="13.962105">
        <ele>754.38</ele>
        <time>1970-01-01T00:00:00Z</time>
      </trkpt>
      <trkpt lat="45.531087" lon="13.962511">
        <ele>771.4488</ele>
        <time>1970-01-01T00:00:00Z</time>
      </trkpt>
      <trkpt lat="45.531200" lon="13.962628">
        <ele>769.62</ele>
        <time>1970-01-01T00:00:00Z</time>
      </trkpt>
      <trkpt lat="45.531041" lon="13.963848">
        <ele>801.3192</ele>
        <time>1970-01-01T00:00:00Z</time>
      </trkpt>
      <trkpt lat="45.530942" lon="13.963970">
        <ele>801.3192</ele>
        <time>1970-01-01T00:00:00Z</time>
      </trkpt>
      <trkpt lat="45.530935" lon="13.964137">
        <ele>811.0728</ele>
        <time>1970-01-01T00:00:00Z</time>
      </trkpt>
      <trkpt lat="45.531007" lon="13.965106">
        <ele>897.0264</ele>
        <time>1970-01-01T00:00:00Z</time>
      </trkpt>
      <trkpt lat="45.530949" lon="13.965634">
        <ele>892.1496</ele>
        <time>1970-01-01T00:00:00Z</time>
      </trkpt>
      <trkpt lat="45.530950" lon="13.965647">
        <ele>892.1496</ele>
        <time>1970-01-01T00:00:00Z</time>
      </trkpt>
      <trkpt lat="45.530812" lon="13.966015">
        <ele>889.7112</ele>
        <time>1970-01-01T00:00:00Z</time>
      </trkpt>
      <trkpt lat="45.531222" lon="13.966409">
        <ele>911.0472</ele>
        <time>1970-01-01T00:00:00Z</time>
      </trkpt>
      <trkpt lat="45.531546" lon="13.968135">
        <ele>911.9616</ele>
        <time>1970-01-01T00:00:00Z</time>
      </trkpt>
      <trkpt lat="45.531674" lon="13.968316">
        <ele>911.9616</ele>
        <time>1970-01-01T00:00:00Z</time>
      </trkpt>
      <trkpt lat="45.531722" lon="13.968518">
        <ele>912.5712</ele>
        <time>1970-01-01T00:00:00Z</time>
      </trkpt>
      <trkpt lat="45.531764" lon="13.968630">
        <ele>912.876</ele>
        <time>1970-01-01T00:00:00Z</time>
      </trkpt>
      <trkpt lat="45.531791" lon="13.968718">
        <ele>913.4856</ele>
        <time>1970-01-01T00:00:00Z</time>
      </trkpt>
      <trkpt lat="45.531921" lon="13.968935">
        <ele>918.6672</ele>
        <time>1970-01-01T00:00:00Z</time>
      </trkpt>
      <trkpt lat="45.531962" lon="13.969017">
        <ele>919.2768</ele>
        <time>1970-01-01T00:00:00Z</time>
      </trkpt>
      <trkpt lat="45.531993" lon="13.969052">
        <ele>922.6296</ele>
        <time>1970-01-01T00:00:00Z</time>
      </trkpt>
      <trkpt lat="45.532012" lon="13.969112">
        <ele>925.3728</ele>
        <time>1970-01-01T00:00:00Z</time>
      </trkpt>
      <trkpt lat="45.532050" lon="13.969243">
        <ele>927.2016</ele>
        <time>1970-01-01T00:00:00Z</time>
      </trkpt>
      <trkpt lat="45.532106" lon="13.969405">
        <ele>927.2016</ele>
        <time>1970-01-01T00:00:00Z</time>
      </trkpt>
      <trkpt lat="45.532122" lon="13.969493">
        <ele>928.4208</ele>
        <time>1970-01-01T00:00:00Z</time>
      </trkpt>
      <trkpt lat="45.532156" lon="13.969574">
        <ele>929.64</ele>
        <time>1970-01-01T00:00:00Z</time>
      </trkpt>
      <trkpt lat="45.532168" lon="13.969681">
        <ele>931.7736</ele>
        <time>1970-01-01T00:00:00Z</time>
      </trkpt>
      <trkpt lat="45.532196" lon="13.969799">
        <ele>933.9072</ele>
        <time>1970-01-01T00:00:00Z</time>
      </trkpt>
      <trkpt lat="45.532217" lon="13.969907">
        <ele>937.8696</ele>
        <time>1970-01-01T00:00:00Z</time>
      </trkpt>
      <trkpt lat="45.532239" lon="13.969932">
        <ele>938.4792</ele>
        <time>1970-01-01T00:00:00Z</time>
      </trkpt>
      <trkpt lat="45.532269" lon="13.970046">
        <ele>939.6984</ele>
        <time>1970-01-01T00:00:00Z</time>
      </trkpt>
      <trkpt lat="45.532315" lon="13.970204">
        <ele>943.6608</ele>
        <time>1970-01-01T00:00:00Z</time>
      </trkpt>
      <trkpt lat="45.532319" lon="13.970354">
        <ele>944.2704</ele>
        <time>1970-01-01T00:00:00Z</time>
      </trkpt>
      <trkpt lat="45.532366" lon="13.970530">
        <ele>948.5376</ele>
        <time>1970-01-01T00:00:00Z</time>
      </trkpt>
      <trkpt lat="45.532420" lon="13.970737">
        <ele>950.976</ele>
        <time>1970-01-01T00:00:00Z</time>
      </trkpt>
      <trkpt lat="45.532462" lon="13.970934">
        <ele>953.7192</ele>
        <time>1970-01-01T00:00:00Z</time>
      </trkpt>
      <trkpt lat="45.532471" lon="13.970984">
        <ele>954.6336</ele>
        <time>1970-01-01T00:00:00Z</time>
      </trkpt>
      <trkpt lat="45.532498" lon="13.971164">
        <ele>956.7672</ele>
        <time>1970-01-01T00:00:00Z</time>
      </trkpt>
      <trkpt lat="45.532519" lon="13.971318">
        <ele>958.9008</ele>
        <time>1970-01-01T00:00:00Z</time>
      </trkpt>
      <trkpt lat="45.532542" lon="13.971518">
        <ele>961.3392</ele>
        <time>1970-01-01T00:00:00Z</time>
      </trkpt>
      <trkpt lat="45.532556" lon="13.971717">
        <ele>962.8632</ele>
        <time>1970-01-01T00:00:00Z</time>
      </trkpt>
      <trkpt lat="45.532577" lon="13.971893">
        <ele>965.3016</ele>
        <time>1970-01-01T00:00:00Z</time>
      </trkpt>
      <trkpt lat="45.532572" lon="13.971995">
        <ele>967.1304</ele>
        <time>1970-01-01T00:00:00Z</time>
      </trkpt>
      <trkpt lat="45.532587" lon="13.972077">
        <ele>968.6544</ele>
        <time>1970-01-01T00:00:00Z</time>
      </trkpt>
      <trkpt lat="45.532624" lon="13.972234">
        <ele>970.4832</ele>
        <time>1970-01-01T00:00:00Z</time>
      </trkpt>
      <trkpt lat="45.532661" lon="13.972392">
        <ele>972.6168</ele>
        <time>1970-01-01T00:00:00Z</time>
      </trkpt>
      <trkpt lat="45.532718" lon="13.972543">
        <ele>973.5312</ele>
        <time>1970-01-01T00:00:00Z</time>
      </trkpt>
      <trkpt lat="45.532767" lon="13.972702">
        <ele>975.36</ele>
        <time>1970-01-01T00:00:00Z</time>
      </trkpt>
      <trkpt lat="45.532801" lon="13.972861">
        <ele>976.884</ele>
        <time>1970-01-01T00:00:00Z</time>
      </trkpt>
      <trkpt lat="45.532825" lon="13.972981">
        <ele>978.408</ele>
        <time>1970-01-01T00:00:00Z</time>
      </trkpt>
      <trkpt lat="45.532866" lon="13.973128">
        <ele>981.1512</ele>
        <time>1970-01-01T00:00:00Z</time>
      </trkpt>
      <trkpt lat="45.532906" lon="13.973273">
        <ele>982.98</ele>
        <time>1970-01-01T00:00:00Z</time>
      </trkpt>
      <trkpt lat="45.532947" lon="13.973425">
        <ele>986.028</ele>
        <time>1970-01-01T00:00:00Z</time>
      </trkpt>
      <trkpt lat="45.532972" lon="13.973531">
        <ele>987.552</ele>
        <time>1970-01-01T00:00:00Z</time>
      </trkpt>
      <trkpt lat="45.533004" lon="13.973652">
        <ele>989.3808</ele>
        <time>1970-01-01T00:00:00Z</time>
      </trkpt>
      <trkpt lat="45.533048" lon="13.973793">
        <ele>991.8192</ele>
        <time>1970-01-01T00:00:00Z</time>
      </trkpt>
      <trkpt lat="45.533070" lon="13.973936">
        <ele>993.648</ele>
        <time>1970-01-01T00:00:00Z</time>
      </trkpt>
      <trkpt lat="45.533122" lon="13.974090">
        <ele>995.172</ele>
        <time>1970-01-01T00:00:00Z</time>
      </trkpt>
      <trkpt lat="45.533190" lon="13.974201">
        <ele>997.0008</ele>
        <time>1970-01-01T00:00:00Z</time>
      </trkpt>
      <trkpt lat="45.533240" lon="13.974284">
        <ele>998.5248</ele>
        <time>1970-01-01T00:00:00Z</time>
      </trkpt>
      <trkpt lat="45.533294" lon="13.974385">
        <ele>1000.9632</ele>
        <time>1970-01-01T00:00:00Z</time>
      </trkpt>
      <trkpt lat="45.533349" lon="13.974485">
        <ele>1001.8776</ele>
        <time>1970-01-01T00:00:00Z</time>
      </trkpt>
      <trkpt lat="45.533429" lon="13.974628">
        <ele>1003.7064</ele>
        <time>1970-01-01T00:00:00Z</time>
      </trkpt>
      <trkpt lat="45.533460" lon="13.974748">
        <ele>1005.2304</ele>
        <time>1970-01-01T00:00:00Z</time>
      </trkpt>
      <trkpt lat="45.533493" lon="13.974878">
        <ele>1006.7544</ele>
        <time>1970-01-01T00:00:00Z</time>
      </trkpt>
      <trkpt lat="45.533560" lon="13.975022">
        <ele>1007.6688</ele>
        <time>1970-01-01T00:00:00Z</time>
      </trkpt>
      <trkpt lat="45.533612" lon="13.975104">
        <ele>1011.3264</ele>
        <time>1970-01-01T00:00:00Z</time>
      </trkpt>
    </trkseg>
  </trk>
</gpx>
